Indian Springs, NV

1:24 AM PDT on April 21, 2018 (GMT -0700)
Indian Springs Air Force Auxiliary

Weather History for KINS - October, 2013

Change the Weather History Date:

Saturday, October 19, 2013

  Actual Average (KDRA) Record (KDRA)
Temperature  
Mean Temperature 58 °F -  
Max Temperature 78 °F 74 °F 90 °F (2003)
Min Temperature 40 °F 46 °F 41 °F (2006)
Degree Days  
Heating Degree Days 6    
Growing Degree Days 8 (Base 50)    
Moisture  
Dew Point 17 °F    
Average Humidity 23    
Maximum Humidity 40    
Minimum Humidity 7    
Precipitation  
Precipitation 0.00 in - - ()
Sea Level Pressure  
Sea Level Pressure 30.12 in    
Wind  
Wind Speed 1 mph (SW)    
Max Wind Speed 6 mph    
Max Gust Speed -    
Visibility 10 miles    
Events      
Averages and records for this station are not official NWS values.
T = Trace of Precipitation, MM = Missing Value Source: NWS Daily Summary

Daily Weather History Graph

Daily Weather History Graph

Search for Another Location

Airport or City:

Astronomy

Oct. 19, 2013 Rise Set
Actual Time 6:53 AM PDT 6:00 PM PDT
Civil Twilight 6:27 AM PDT 6:26 PM PDT
Nautical Twilight 5:57 AM PDT 6:56 PM PDT
Astronomical Twilight 5:27 AM PDT 7:26 PM PDT
Moon 6:33 PM PDT (10/19) 7:34 AM PDT (10/19)
Length of Visible Light 11h 59m
Length of Day
11h 06m
Full, 99% of the Moon is Illuminated
Oct 19
Full
Oct 26
Last Quarter
Nov 3
New
Nov 9
First Quarter
Nov 17
Full

Hourly Weather History & Observations

Time (PDT) Temp. Dew Point Humidity Pressure Visibility Wind Dir Wind Speed Gust Speed Precip Events Conditions
12:58 AM 48.7 °F 17.1 °F 28% 30.14 in 10.0 mi Calm Calm - N/A   Clear
1:58 AM 48.0 °F 17.6 °F 30% 30.15 in 10.0 mi Calm Calm - N/A   Clear
2:58 AM 47.7 °F 19.9 °F 33% 30.14 in 10.0 mi Calm Calm - N/A   Clear
3:58 AM 45.0 °F 20.8 °F 38% 30.15 in 10.0 mi SSE 2.3 mph - N/A   Clear
4:58 AM 45.1 °F 19.4 °F 36% 30.15 in 10.0 mi West 1.2 mph - N/A   Clear
5:58 AM 42.1 °F 18.5 °F 39% 30.16 in 10.0 mi Calm Calm - N/A   Clear
6:58 AM 40.3 °F 17.6 °F 40% 30.16 in 10.0 mi ESE 1.2 mph - N/A   Clear
7:58 AM 42.1 °F 19.0 °F 40% 30.18 in 10.0 mi Calm Calm - N/A   Clear
8:58 AM 49.6 °F 21.0 °F 32% 30.19 in 10.0 mi WNW 1.2 mph - N/A   Clear
9:58 AM 56.1 °F 21.0 °F 26% 30.19 in 10.0 mi Calm Calm - N/A   Clear
10:58 AM 63.3 °F 21.9 °F 21% 30.18 in 10.0 mi Calm Calm - N/A   Clear
11:58 AM 67.3 °F 18.3 °F 15% 30.17 in 10.0 mi Calm Calm - N/A   Clear
12:58 PM 72.3 °F 17.2 °F 12% 30.13 in 10.0 mi Variable 2.3 mph - N/A   Clear
1:58 PM 75.0 °F 15.3 °F 10% 30.10 in 10.0 mi Calm Calm - N/A   Clear
2:58 PM 76.5 °F 9.5 °F 8% 30.08 in 10.0 mi Calm Calm - N/A   Clear
3:58 PM 77.4 °F 9.0 °F 7% 30.06 in 10.0 mi SE 2.3 mph - N/A   Clear
4:58 PM 77.4 °F 9.0 °F 7% 30.05 in 10.0 mi ENE 2.3 mph - N/A   Clear
5:58 PM 70.7 °F 15.6 °F 12% 30.05 in 10.0 mi NW 5.8 mph - N/A   Clear
6:58 PM 68.7 °F 13.6 °F 12% 30.06 in 10.0 mi North - - N/A   Clear
7:58 PM 63.1 °F 15.3 °F 16% 30.07 in 10.0 mi ENE 1.2 mph - N/A   Clear
8:58 PM 58.6 °F 16.0 °F 19% 30.07 in 10.0 mi SW 2.3 mph - N/A   Clear
9:58 PM 60.3 °F 14.2 °F 17% 30.08 in 10.0 mi West 3.5 mph - N/A   Clear
10:58 PM 53.6 °F 20.1 °F 27% 30.08 in 10.0 mi Calm Calm - N/A   Clear
11:58 PM 53.1 °F 17.4 °F 25% 30.07 in 10.0 mi SSW 4.6 mph - N/A   Clear